Location: Moscow
(55.7500°N, 37.5830°E)
Time: 12:29:11
(UTC+03:00)

S-56A Canister/Altair - Pass Details

Date: 03 December 2021
Orbit: 633 x 2499 km, 38.9° (Epoch: 17 January)

Event Time Altitude Azimuth Distance (km) Brightness Sun altitude
Rises 02:49:59 0° 240° (WSW) 4,326 - -46.4°
Reaches altitude 10° 02:54:27 10° 222° (SW) 2,971 - -45.9°
Maximum altitude 02:58:28 16° 186° (S) 2,220 - -45.4°
Drops below altitude 10° 03:01:50 10° 148° (SSE) 2,396 - -45.0°
Sets 03:04:53 0° 126° (SE) 3,135 - -44.6°
